Time,TemperatureF,DewpointF,PressureIn,WindDirection,WindDirectionDegrees,WindSpeedMPH,WindSpeedGustMPH,Humidity,HourlyPrecipIn,Conditions,Clouds,dailyrainin,SolarRadiationWatts/m^2,SoftwareType,DateUTC
2013-06-08 00:22:00,79.0,56.0,-100.00,South,191,0.0,5.0,46,0.00,,,0.00,0.000000,,2013-06-08 07:22:00,
2013-06-08 01:22:00,76.0,54.0,-100.00,NNE,15,0.0,0.0,47,0.00,,,0.00,0.000000,,2013-06-08 08:22:00,
2013-06-08 02:12:00,76.0,51.0,-100.00,North,0,7.0,9.0,42,0.00,,,0.00,0.000000,,2013-06-08 09:12:00,
2013-06-08 02:22:00,76.0,51.0,-100.00,North,0,7.0,9.0,42,0.00,,,0.00,0.000000,,2013-06-08 09:22:00,
2013-06-08 02:33:00,76.0,51.0,-100.00,North,0,7.0,9.0,42,0.00,,,0.00,0.000000,,2013-06-08 09:33:00,
2013-06-08 02:42:00,76.0,51.0,-100.00,North,0,7.0,9.0,42,0.00,,,0.00,0.000000,,2013-06-08 09:42:00,
2013-06-08 02:52:00,76.0,51.0,-100.00,North,0,7.0,9.0,42,0.00,,,0.00,0.000000,,2013-06-08 09:52:00,
2013-06-08 03:22:00,78.0,42.0,-100.00,NNE,15,8.0,12.0,28,0.00,,,0.00,0.000000,,2013-06-08 10:22:00,
2013-06-08 03:33:00,78.0,42.0,-100.00,NNE,15,8.0,12.0,28,0.00,,,0.00,0.000000,,2013-06-08 10:33:00,
2013-06-08 03:42:00,78.0,42.0,-100.00,NNE,15,8.0,12.0,28,0.00,,,0.00,0.000000,,2013-06-08 10:42:00,
2013-06-08 03:52:00,78.0,42.0,-100.00,NNE,15,8.0,12.0,28,0.00,,,0.00,0.000000,,2013-06-08 10:52:00,
2013-06-08 04:22:00,76.0,41.0,-100.00,ESE,103,0.0,9.0,28,0.00,,,0.00,0.000000,,2013-06-08 11:22:00,
2013-06-08 04:32:00,76.0,41.0,-100.00,ESE,103,0.0,9.0,28,0.00,,,0.00,0.000000,,2013-06-08 11:32:00,
2013-06-08 04:42:00,76.0,41.0,-100.00,ESE,103,0.0,9.0,28,0.00,,,0.00,0.000000,,2013-06-08 11:42:00,
2013-06-08 04:52:00,76.0,41.0,-100.00,ESE,103,0.0,9.0,28,0.00,,,0.00,0.000000,,2013-06-08 11:52:00,
2013-06-08 05:22:00,75.0,39.0,-100.00,North,358,4.0,9.0,27,0.00,,,0.00,0.000000,,2013-06-08 12:22:00,
2013-06-08 05:32:00,75.0,39.0,-100.00,North,358,4.0,9.0,27,0.00,,,0.00,0.000000,,2013-06-08 12:32:00,
2013-06-08 05:42:00,75.0,39.0,-100.00,North,358,4.0,9.0,27,0.00,,,0.00,0.000000,,2013-06-08 12:42:00,
2013-06-08 05:52:00,75.0,39.0,-100.00,North,358,4.0,9.0,27,0.00,,,0.00,0.000000,,2013-06-08 12:52:00,
2013-06-08 06:22:00,74.0,37.0,-100.00,NNE,14,9.0,13.0,26,0.00,,,-99.99,2.000000,,2013-06-08 13:22:00,
2013-06-08 06:32:00,74.0,37.0,-100.00,NNE,14,9.0,13.0,26,0.00,,,-99.99,2.000000,,2013-06-08 13:32:00,
2013-06-08 06:42:00,74.0,37.0,-100.00,NNE,14,9.0,13.0,26,0.00,,,-99.99,2.000000,,2013-06-08 13:42:00,
2013-06-08 06:52:00,74.0,37.0,-100.00,NNE,14,9.0,13.0,26,0.00,,,-99.99,2.000000,,2013-06-08 13:52:00,
2013-06-08 07:22:00,73.0,37.0,-100.00,NNE,13,6.0,15.0,27,0.00,,,0.00,20.000000,,2013-06-08 14:22:00,
2013-06-08 07:32:00,73.0,37.0,-100.00,NNE,13,6.0,15.0,27,0.00,,,0.00,20.000000,,2013-06-08 14:32:00,
2013-06-08 07:42:00,73.0,37.0,-100.00,NNE,13,6.0,15.0,27,0.00,,,0.00,20.000000,,2013-06-08 14:42:00,
2013-06-08 07:52:00,73.0,37.0,-100.00,NNE,13,6.0,15.0,27,0.00,,,0.00,20.000000,,2013-06-08 14:52:00,
2013-06-08 08:22:00,80.0,38.0,-100.00,NNE,12,7.0,13.0,22,0.00,,,0.00,252.000000,,2013-06-08 15:22:00,
2013-06-08 08:32:00,80.0,38.0,-100.00,NNE,12,7.0,13.0,22,0.00,,,0.00,252.000000,,2013-06-08 15:32:00,
2013-06-08 08:42:00,80.0,38.0,-100.00,NNE,12,7.0,13.0,22,0.00,,,0.00,252.000000,,2013-06-08 15:42:00,
2013-06-08 08:53:00,80.0,38.0,-100.00,NNE,12,7.0,13.0,22,0.00,,,0.00,252.000000,,2013-06-08 15:53:00,
2013-06-08 09:23:00,84.0,45.0,-100.00,South,186,8.0,11.0,26,0.00,,,0.00,528.000000,,2013-06-08 16:23:00,
2013-06-08 09:32:00,84.0,45.0,-100.00,South,186,8.0,11.0,26,0.00,,,0.00,528.000000,,2013-06-08 16:32:00,
2013-06-08 09:42:00,84.0,45.0,-100.00,South,186,8.0,11.0,26,0.00,,,0.00,528.000000,,2013-06-08 16:42:00,
2013-06-08 09:53:00,84.0,45.0,-100.00,South,186,8.0,11.0,26,0.00,,,0.00,528.000000,,2013-06-08 16:53:00,
2013-06-08 10:22:00,87.0,40.0,-100.00,South,176,9.0,12.0,19,0.00,,,0.00,737.000000,,2013-06-08 17:22:00,
2013-06-08 10:32:00,87.0,40.0,-100.00,South,176,9.0,12.0,19,0.00,,,0.00,737.000000,,2013-06-08 17:32:00,
2013-06-08 10:42:00,87.0,40.0,-100.00,South,176,9.0,12.0,19,0.00,,,0.00,737.000000,,2013-06-08 17:42:00,
2013-06-08 10:52:00,87.0,40.0,-100.00,South,176,9.0,12.0,19,0.00,,,0.00,737.000000,,2013-06-08 17:52:00,
2013-06-08 11:22:00,95.0,42.0,-100.00,South,177,8.0,14.0,16,0.00,,,0.00,912.000000,,2013-06-08 18:22:00,
2013-06-08 11:32:00,95.0,42.0,-100.00,South,177,8.0,14.0,16,0.00,,,0.00,912.000000,,2013-06-08 18:32:00,
2013-06-08 11:41:00,95.0,42.0,-100.00,South,177,8.0,14.0,16,0.00,,,0.00,912.000000,,2013-06-08 18:41:00,
2013-06-08 11:52:00,95.0,42.0,-100.00,South,177,8.0,14.0,16,0.00,,,0.00,912.000000,,2013-06-08 18:52:00,
2013-06-08 12:22:00,99.0,33.0,-100.00,South,170,13.0,17.0,10,0.00,,,0.00,1037.000000,,2013-06-08 19:22:00,
2013-06-08 12:42:00,99.0,33.0,-100.00,South,170,13.0,17.0,10,0.00,,,0.00,1037.000000,,2013-06-08 19:42:00,
2013-06-08 12:52:00,99.0,33.0,-100.00,South,170,13.0,17.0,10,0.00,,,0.00,1037.000000,,2013-06-08 19:52:00,
2013-06-08 13:22:00,104.0,24.0,-100.00,SSW,198,20.0,28.0,6,0.00,,,0.00,1103.000000,,2013-06-08 20:22:00,
2013-06-08 14:22:00,106.0,16.0,-100.00,SSE,168,22.0,36.0,4,0.00,,,0.00,1109.000000,,2013-06-08 21:22:00,
2013-06-08 15:22:00,106.0,16.0,-100.00,South,180,25.0,38.0,4,0.00,,,0.00,1056.000000,,2013-06-08 22:22:00,
2013-06-08 16:22:00,104.0,49.0,-100.00,WNW,295,17.0,33.0,16,0.00,,,0.00,928.000000,,2013-06-08 23:22:00,
2013-06-08 16:42:00,104.0,49.0,-100.00,WNW,295,17.0,33.0,16,0.00,,,0.00,928.000000,,2013-06-08 23:42:00,
2013-06-08 16:52:00,104.0,49.0,-100.00,WNW,295,17.0,33.0,16,0.00,,,0.00,928.000000,,2013-06-08 23:52:00,
2013-06-08 17:22:00,104.0,37.0,-100.00,NNW,331,19.0,33.0,10,0.00,,,0.00,732.000000,,2013-06-09 00:22:00,
2013-06-08 17:32:00,104.0,37.0,-100.00,NNW,331,19.0,33.0,10,0.00,,,0.00,732.000000,,2013-06-09 00:32:00,
2013-06-08 17:42:00,104.0,37.0,-100.00,NNW,331,19.0,33.0,10,0.00,,,0.00,732.000000,,2013-06-09 00:42:00,
2013-06-08 17:52:00,104.0,37.0,-100.00,NNW,331,19.0,33.0,10,0.00,,,0.00,732.000000,,2013-06-09 00:52:00,
2013-06-08 18:22:00,105.0,37.0,-100.00,NNW,331,14.0,27.0,10,0.00,,,0.00,528.000000,,2013-06-09 01:22:00,
2013-06-08 18:32:00,105.0,37.0,-100.00,NNW,331,14.0,27.0,10,0.00,,,0.00,528.000000,,2013-06-09 01:32:00,
2013-06-08 18:42:00,105.0,37.0,-100.00,NNW,331,14.0,27.0,10,0.00,,,0.00,528.000000,,2013-06-09 01:42:00,
2013-06-08 18:52:00,105.0,37.0,-100.00,NNW,331,14.0,27.0,10,0.00,,,0.00,528.000000,,2013-06-09 01:52:00,
2013-06-08 19:22:00,98.0,46.0,-100.00,NW,320,20.0,31.0,17,0.00,,,0.00,286.000000,,2013-06-09 02:22:00,
2013-06-08 19:32:00,98.0,46.0,-100.00,NW,320,20.0,31.0,17,0.00,,,0.00,286.000000,,2013-06-09 02:32:00,
2013-06-08 19:42:00,98.0,46.0,-100.00,NW,320,20.0,31.0,17,0.00,,,0.00,286.000000,,2013-06-09 02:42:00,
2013-06-08 19:52:00,98.0,46.0,-100.00,NW,320,20.0,31.0,17,0.00,,,0.00,286.000000,,2013-06-09 02:52:00,
2013-06-08 20:12:00,96.0,44.0,-100.00,NW,304,18.0,32.0,17,0.00,,,0.00,63.000000,,2013-06-09 03:12:00,
2013-06-08 20:22:00,96.0,44.0,-100.00,NW,304,18.0,32.0,17,0.00,,,0.00,63.000000,,2013-06-09 03:22:00,
2013-06-08 20:33:00,96.0,44.0,-100.00,NW,304,18.0,32.0,17,0.00,,,0.00,63.000000,,2013-06-09 03:33:00,
2013-06-08 20:43:00,96.0,44.0,-100.00,NW,304,18.0,32.0,17,0.00,,,0.00,63.000000,,2013-06-09 03:43:00,
2013-06-08 20:53:00,96.0,44.0,-100.00,NW,304,18.0,32.0,17,0.00,,,0.00,63.000000,,2013-06-09 03:53:00,
2013-06-08 21:22:00,91.0,52.0,-100.00,NW,321,19.0,28.0,27,0.00,,,0.00,2.000000,,2013-06-09 04:22:00,
2013-06-08 21:32:00,91.0,52.0,-100.00,NW,321,19.0,28.0,27,0.00,,,0.00,2.000000,,2013-06-09 04:32:00,
2013-06-08 21:42:00,91.0,52.0,-100.00,NW,321,19.0,28.0,27,0.00,,,0.00,2.000000,,2013-06-09 04:42:00,
2013-06-08 21:52:00,91.0,52.0,-100.00,NW,321,19.0,28.0,27,0.00,,,0.00,2.000000,,2013-06-09 04:52:00,
2013-06-08 22:22:00,90.0,52.0,-100.00,SSW,194,4.0,23.0,28,0.00,,,0.00,0.000000,,2013-06-09 05:22:00,
2013-06-08 22:32:00,90.0,52.0,-100.00,SSW,194,4.0,23.0,28,0.00,,,0.00,0.000000,,2013-06-09 05:32:00,
2013-06-08 22:42:00,90.0,52.0,-100.00,SSW,194,4.0,23.0,28,0.00,,,0.00,0.000000,,2013-06-09 05:42:00,
2013-06-08 22:52:00,90.0,52.0,-100.00,SSW,194,4.0,23.0,28,0.00,,,0.00,0.000000,,2013-06-09 05:52:00,
2013-06-08 23:22:00,88.0,54.0,-100.00,NNE,12,1.0,7.0,31,0.00,,,0.00,0.000000,,2013-06-09 06:22:00,
2013-06-08 23:32:00,88.0,54.0,-100.00,NNE,12,1.0,7.0,31,0.00,,,0.00,0.000000,,2013-06-09 06:32:00,
2013-06-08 23:42:00,88.0,54.0,-100.00,NNE,12,1.0,7.0,31,0.00,,,0.00,0.000000,,2013-06-09 06:42:00,
2013-06-08 23:52:00,88.0,54.0,-100.00,NNE,12,1.0,7.0,31,0.00,,,0.00,0.000000,,2013-06-09 06:52:00,